SCP
0 0 0 0 0 0 0 0 0 0 0 0 0 0 0 0 1 1 2 3 3 4 4 4 3 2 2 2 2 2 2 2 2 2 2 2 1 1 0 0 0 0 0 0
0 0 0 0 0 0 0 0 0 0 0 0 0 0 0 0 1 1 2 3 3 4 5 4 3 2 2 2 3 3 3 2 2 2 2 1 1 0 0 0 0 0 0 0
0 0 0 0 0 0 0 0 0 0 0 0 0 0 0 0 0 1 2 2 3 4 4 4 3 2 2 2 3 3 3 3 2 2 1 1 0 0 0 0 0 0 0 0
0 0 0 0 0 0 0 0 0 0 0 0 0 0 0 0 0 1 1 2 3 3 4 3 3 2 2 3 3 4 4 3 2 1 1 0 0 0 0 0 0 0 0 0
0 0 0 0 0 0 0 0 0 0 0 0 0 0 0 0 0 1 1 2 3 3 4 3 3 3 2 2 3 3 3 2 2 1 0 0 0 0 0 0 0 0 0 0
0 0 0 0 0 0 0 0 0 0 0 0 0 0 0 0 0 0 1 2 3 3 4 3 2 2 2 2 2 2 2 1 1 0 0 0 0 0 0 0 0 0 0 0
0 0 0 0 0 0 0 0 0 0 0 0 0 0 0 0 0 0 1 2 3 3 3 2 2 1 1 1 1 1 1 0 0 0 0 0 0 0 0 0 0 0 0 0
0 0 0 0 0 0 0 0 0 0 0 0 0 0 0 0 0 1 2 2 2 2 2 1 1 1 0 0 0 0 0 0 0 0 0 0 0 0 0 0 0 0 0 0
0 0 0 0 0 0 0 0 0 0 0 0 0 0 0 0 0 1 2 2 2 1 1 1 0 0 0 0 0 0 0 0 0 0 0 0 0 0 0 0 0 0 0 0
0 0 0 0 0 0 0 0 0 0 0 0 0 0 0 0 0 1 2 2 1 1 1 0 0 0 0 0 0 0 0 0 0 0 0 0 0 0 0 0 0 0 0 0
0 0 0 0 0 0 0 0 0 0 0 0 0 0 0 0 0 1 1 1 1 1 1 0 0 0 0 0 0 0 0 0 0 0 0 0 0 0 0 0 0 0 0 0
0 0 0 0 0 0 0 0 0 0 0 0 0 0 0 1 1 1 1 1 1 1 1 0 0 0 0 0 0 0 0 0 0 0 0 0 0 0 0 0 0 0 0 0
0 0 0 0 0 0 0 0 0 0 0 0 0 0 0 1 1 1 1 1 1 1 1 0 0 0 0 0 0 0 0 0 0 0 0 0 0 0 0 0 0 0 0 0
0 0 0 0 0 0 0 0 0 0 0 0 0 0 1 1 1 1 1 1 1 1 0 0 0 0 0 0 0 0 0 0 0 0 0 0 0 0 0 0 0 0 0 0
0 0 0 0 0 0 0 0 0 0 0 0 0 0 1 1 1 1 1 1 1 1 0 0 0 0 0 0 0 0 0 0 0 0 0 0 0 0 0 0 0 0 0 0
0 0 0 0 0 0 0 0 0 0 0 0 0 0 1 1 1 1 1 1 1 1 0 0 0 0 0 0 0 0 0 0 0 0 0 0 0 0 0 0 0 0 0 0
0 0 0 0 0 0 0 0 0 0 0 0 0 1 1 1 1 1 1 1 1 1 0 0 0 0 0 0 0 0 0 0 0 0 0 0 0 0 0 0 0 0 0 0
0 0 0 0 0 0 0 0 0 0 0 0 1 1 1 1 1 1 1 1 1 1 0 0 0 0 0 0 0 0 0 0 0 0 0 0 0 0 0 0 0 0 0 0
0 0 0 0 0 0 0 0 0 0 0 0 1 1 1 1 1 0 0 1 1 0 0 0 0 0 0 0 0 0 0 0 0 0 0 0 0 0 0 0 0 0 0 0
0 0 0 0 0 0 0 0 0 0 0 0 0 0 0 0 0 0 0 0 0 0 0 0 0 0 0 0 0 0 0 0 0 0 0 0 0 0 0 0 0 0 0 0
0 0 0 0 0 0 0 0 0 0 0 0 0 0 0 0 0 0 0 0 0 0 0 0 0 0 0 0 0 0 0 0 0 0 0 0 0 0 0 0 0 0 0 0
0 0 0 0 0 0 0 0 0 0 0 0 0 0 0 0 0 0 0 0 0 0 0 0 0 0 0 0 0 0 0 0 0 0 0 0 0 0 0 0 0 0 0 0
0 0 0 0 0 0 0 0 0 0 0 0 0 0 0 0 0 0 0 0 0 0 0 0 0 0 0 0 0 0 0 0 0 0 0 0 0 0 0 0 0 0 0 0
0 0 0 0 0 0 0 0 0 0 0 0 0 0 0 0 0 0 0 0 0 0 0 0 0 0 0 0 0 0 0 0 0 0 0 0 0 0 0 0 0 0 0 0
0 0 0 0 0 0 0 0 0 0 0 0 0 0 0 0 0 0 0 0 0 0 0 0 0 0 0 0 0 0 0 0 0 0 0 0 0 0 0 0 0 0 0 0
0 0 0 0 0 0 0 0 0 0 0 0 0 0 0 0 0 0 0 0 0 0 0 0 0 0 0 0 0 0 0 0 0 0 0 0 0 0 0 0 0 0 0 0
Wind_Speed
11 12 15 15 16 15 9 11 13 12 6 10 11 10 6 7 10 12 12 13 13 14 13 11 10 9 8 8 8 8 9 9 7 6 7 7 7 7 7 8 9 9 8 8
10 16 15 10 8 12 14 15 15 13 6 8 10 13 10 9 13 12 13 14 14 14 13 11 10 9 9 9 10 11 11 9 8 7 6 6 8 7 8 7 8 8 7 7
19 7 8 11 12 13 15 15 15 14 11 10 12 17 16 11 12 12 14 15 17 17 16 14 12 11 11 11 11 10 12 11 10 10 9 9 8 7 6 6 5 5 5 5
17 15 9 12 15 15 16 14 14 15 15 14 11 13 13 12 13 15 16 17 19 18 17 16 15 14 13 13 13 13 13 13 12 10 9 9 6 5 5 3 4 4 4 5
12 14 16 16 16 15 14 10 11 14 15 16 13 13 14 10 13 16 18 18 18 18 18 17 17 16 15 14 13 14 14 14 12 11 10 9 7 6 5 3 4 1 3 3
15 8 10 12 12 10 11 9 10 12 14 17 16 15 14 10 12 13 15 17 16 16 16 16 16 16 15 13 13 14 14 14 12 11 10 9 8 6 4 2 2 2 2 2
16 15 12 11 11 10 11 12 10 12 14 16 15 13 13 9 9 9 8 15 15 15 16 16 17 16 15 14 13 12 13 13 12 12 10 9 7 5 5 3 3 3 2 2
14 14 16 15 18 14 15 16 13 12 12 11 9 11 10 4 2 4 6 14 16 17 16 17 17 16 15 14 13 11 12 12 12 11 10 9 6 4 5 4 3 2 3 3
8 10 7 11 14 16 16 16 18 17 17 15 12 11 8 7 6 6 12 16 17 16 16 16 16 15 14 13 12 11 12 12 11 11 10 8 6 5 5 2 1 1 2 3
8 10 11 11 12 15 18 14 10 13 16 17 16 16 12 6 5 8 15 17 16 15 16 16 15 14 12 11 11 12 12 11 11 10 8 6 5 4 2 1 3 4 4 4
6 9 12 8 12 17 16 16 13 13 14 15 15 12 3 0 3 7 13 15 16 16 17 16 15 14 12 12 12 12 11 11 10 9 7 5 4 3 1 2 3 3 4 5
1 7 11 10 3 8 12 14 15 14 14 13 14 10 6 3 6 9 12 14 16 15 16 16 15 14 13 12 12 11 10 10 9 7 5 4 3 1 2 2 3 4 6 7
3 6 10 10 8 7 6 6 8 10 10 13 14 6 7 3 1 7 11 14 15 15 16 15 13 12 12 11 11 11 9 9 7 6 4 3 0 1 2 3 4 6 7 9
5 6 8 10 4 1 4 4 5 9 11 11 11 3 5 4 3 7 10 13 14 15 15 15 12 11 10 11 11 10 8 6 5 4 3 2 1 1 3 5 6 8 9 11
5 7 6 5 2 3 5 6 7 9 9 10 8 7 4 1 5 7 10 13 14 15 14 13 12 11 11 11 10 9 7 4 4 4 3 3 1 2 5 6 7 8 8 9
3 6 7 10 8 8 12 13 13 13 13 14 15 14 4 2 5 9 12 14 16 16 15 13 12 11 10 9 9 8 5 4 4 3 3 2 2 4 5 6 6 6 6 7
3 5 8 12 10 11 16 10 9 10 10 11 13 8 5 1 5 9 11 14 15 16 16 14 11 9 8 7 7 6 4 3 3 2 1 2 4 4 4 4 5 6 7 7
6 7 7 10 9 13 1 6 5 7 5 8 8 8 9 6 1 4 7 9 12 14 14 13 11 10 9 8 6 3 3 3 2 2 2 3 3 3 4 5 6 7 7 8
6 8 8 8 11 11 4 5 6 6 2 10 11 8 5 4 2 1 2 2 7 11 13 13 12 10 9 7 4 3 3 2 2 2 2 3 4 5 5 6 6 6 7 7
4 7 8 8 8 7 3 7 4 6 4 10 11 8 3 3 3 3 5 8 13 15 14 13 11 10 8 5 3 1 1 1 1 3 4 5 5 5 5 5 6 6 5 6
8 8 10 9 8 6 7 6 6 7 4 12 12 9 3 2 5 9 11 13 14 14 14 12 10 8 7 6 3 2 1 2 3 4 5 6 5 4 4 5 5 5 6 6
6 6 8 7 9 3 8 7 6 9 12 11 11 7 2 7 10 11 13 14 14 14 12 10 8 9 7 5 4 3 4 5 5 6 6 5 4 5 5 5 4 4 5 6
5 5 4 4 4 5 5 7 9 11 13 11 9 2 8 11 12 13 14 14 13 12 10 9 11 11 8 6 3 5 6 5 6 6 5 4 5 5 5 5 4 5 5 5
3 3 6 7 7 7 9 11 11 11 11 8 3 5 11 15 16 15 13 12 12 13 12 11 11 10 8 6 5 6 6 6 6 6 5 4 5 5 5 5 6 6 6 6
5 5 8 11 11 10 8 8 10 9 5 2 7 11 15 17 16 15 13 13 13 12 10 9 9 9 8 7 8 8 7 6 6 5 5 5 5 6 5 5 7 7 7 6
5 6 8 9 9 10 12 11 9 3 5 11 14 15 15 15 16 15 14 13 12 11 10 9 8 8 9 9 9 8 6 5 4 4 4 4 5 6 5 5 5 5 4 3
Wind_Direction
195 217 220 222 226 254 268 259 253 247 258 266 255 247 235 229 227 224 210 196 192 189 185 155 155 154 142 130 124 120 115 125 134 133 133 121 109 101 90 79 72 70 66 63
197 229 237 244 232 235 239 244 249 250 240 267 260 256 247 235 234 231 219 203 200 191 175 165 166 161 149 134 129 129 127 133 139 122 107 103 102 91 83 81 75 72 67 54
220 234 231 215 212 225 235 246 254 257 251 245 261 258 242 219 233 232 228 217 202 196 184 174 166 161 153 140 134 127 122 122 115 119 116 118 115 119 113 107 95 80 73 61
232 228 195 216 225 230 243 239 253 260 258 254 239 266 244 213 219 225 226 221 209 194 188 176 167 160 152 141 136 131 125 119 120 129 132 136 132 122 119 134 118 110 61 32
219 227 220 228 235 235 248 257 247 250 254 261 249 255 263 224 234 229 220 216 208 193 183 175 168 157 149 144 139 133 126 121 119 117 124 129 121 121 128 129 112 346 67 40
241 217 230 238 234 235 237 238 242 247 249 246 246 251 258 231 238 247 215 202 199 184 170 164 157 148 144 141 137 133 127 126 127 126 121 112 109 108 102 66 20 329 17 33
227 220 219 230 226 205 219 228 231 227 224 241 237 243 258 258 260 273 217 183 175 164 157 156 153 148 144 142 140 136 136 134 128 118 109 102 96 93 81 33 52 334 343 11
220 225 213 217 230 231 216 230 248 262 258 252 204 234 258 240 314 296 196 165 161 161 159 158 155 150 147 145 146 145 142 132 122 112 101 88 75 56 68 64 8 3 339 5
241 239 196 215 223 235 239 236 248 258 266 274 266 256 251 229 227 215 169 160 168 162 159 158 156 149 144 148 150 143 132 123 112 101 92 85 72 60 70 101 248 321 346 338
266 256 239 226 234 237 249 248 246 245 254 259 257 253 250 226 216 197 175 171 168 160 161 158 152 143 143 144 134 131 127 112 99 90 81 78 76 74 77 318 15 355 341 347
249 251 249 231 228 241 225 234 237 248 252 261 265 265 18 147 269 224 186 175 166 166 165 158 149 144 145 141 139 134 122 111 102 92 90 85 70 58 312 301 323 317 312 310
288 268 257 242 242 288 260 239 236 247 255 256 270 279 86 321 270 228 190 172 162 167 164 155 149 149 151 147 140 129 118 109 103 104 107 88 63 13 289 293 309 298 291 293
318 255 248 220 198 206 219 228 246 249 261 261 262 265 98 39 263 186 174 163 158 164 157 152 152 154 151 142 130 118 111 107 116 125 124 100 25 254 266 294 301 298 295 294
270 255 269 282 344 119 194 209 231 247 252 257 252 255 120 100 145 173 171 159 159 164 161 160 158 150 142 133 124 119 111 115 127 138 142 133 172 260 280 293 299 297 297 298
278 252 254 277 322 307 275 271 273 273 285 284 283 270 300 122 187 184 173 161 165 169 167 165 155 145 141 132 122 108 104 121 149 158 143 133 158 279 291 301 307 312 316 319
292 272 265 258 253 273 274 270 269 272 276 275 276 275 349 49 174 186 182 176 179 174 168 163 151 145 138 126 114 108 118 155 171 155 137 137 277 295 308 319 328 339 347 345
252 262 261 265 263 279 265 282 292 287 292 297 290 328 31 326 207 208 199 192 188 176 167 156 147 136 119 103 95 103 136 173 178 164 194 256 292 316 339 353 9 8 354 344
269 265 264 263 258 252 299 40 338 301 309 346 324 346 343 338 272 235 224 203 184 171 154 139 127 111 97 89 88 112 148 162 182 212 261 297 330 12 39 32 18 3 352 345
254 254 254 251 245 259 221 55 2 320 312 32 1 359 7 51 83 50 317 231 157 138 124 117 114 110 104 105 127 157 150 156 220 274 325 11 37 59 42 24 10 359 349 349
213 231 242 232 243 244 87 39 347 276 219 36 7 354 332 260 267 103 89 87 94 102 108 110 111 111 112 123 142 139 143 207 337 10 42 65 65 50 31 15 354 355 347 345
207 212 226 229 235 250 65 6 288 254 7 3 348 344 315 285 43 94 99 96 101 105 108 111 115 116 122 129 130 143 136 38 35 70 89 80 63 39 10 356 347 338 341 350
246 234 227 228 235 225 52 357 342 336 332 323 326 337 84 107 105 105 102 104 106 106 109 116 120 121 126 140 164 140 76 66 87 99 94 75 36 2 357 345 332 335 355 356
262 303 297 267 285 20 344 315 310 305 305 305 303 321 136 129 117 109 108 108 110 116 128 139 137 136 143 154 141 90 85 97 106 101 82 49 20 13 5 346 4 20 20 1
198 246 272 275 275 304 309 302 300 304 306 302 302 137 139 126 120 117 116 122 132 138 143 145 139 133 128 119 93 87 98 106 104 89 63 38 23 26 45 19 26 26 18 4
288 265 264 268 281 290 289 305 315 314 313 93 113 121 123 123 124 127 133 138 136 133 131 128 122 118 107 99 97 98 103 106 96 74 47 35 43 45 40 44 39 23 36 14
252 269 278 288 318 311 307 317 317 295 131 123 118 117 123 126 132 134 129 125 122 121 122 120 117 107 101 102 99 97 101 97 75 59 39 35 45 41 27 39 78 84 34 358